Alexandria, Egypt

10:54 AM EET on April 26, 2017 (GMT +0200)
Alexandria

Weather History for HEAX - March, 2014

Change the Weather History Date:

Wednesday, March 26, 2014

  Actual Average Record
Temperature  
Mean Temperature 64 °F -  
Max Temperature 76 °F 71 °F 78 °F (2001)
Min Temperature 52 °F 55 °F 41 °F (1997)
Degree Days  
Heating Degree Days 1    
Growing Degree Days 14 (Base 50)    
Moisture  
Dew Point 56 °F    
Average Humidity 75    
Maximum Humidity 100    
Minimum Humidity 44    
Precipitation  
Precipitation 0.00 in 0.01 in - ()
Sea Level Pressure  
Sea Level Pressure 30.05 in    
Wind  
Wind Speed 4 mph ()    
Max Wind Speed 12 mph    
Max Gust Speed -    
Visibility 5.2 miles    
Events      
Averages and records for this station are not official NWS values.
T = Trace of Precipitation, MM = Missing Value Source: Averaged Metar Reports

Daily Weather History Graph

Daily Weather History Graph

Search for Another Location

Airport or City:

Trip Planner

Search our weather history database for the weather conditions in past years. The results will help you decide how hot, cold, wet, or windy it might be!

Date:

Astronomy

Mar. 26, 2014 Rise Set
Actual Time 5:56 AM EET 6:15 PM EET
Civil Twilight 5:32 AM EET 6:39 PM EET
Nautical Twilight 5:04 AM EET 7:08 PM EET
Astronomical Twilight 4:35 AM EET 7:36 PM EET
Moon 2:32 AM EET 1:47 PM EET
Length of Visible Light 13h 07m
Length of Day
12h 18m
Waning Crescent, 24% of the Moon is Illuminated
Mar 26
Waning Crescent
Mar 30
New
Apr 7
First Quarter
Apr 15
Full
Apr 22
Last Quarter

Hourly Weather History & Observations

Time (EET) Temp. Dew Point Humidity Pressure Visibility Wind Dir Wind Speed Gust Speed Precip Events Conditions
12:00 AM 62.6 °F 55.4 °F 77% 30.01 in - North 2.3 mph - N/A   Clear
1:00 AM 62.6 °F 55.4 °F 77% 30.01 in - North 4.6 mph - N/A   Clear
2:00 AM 61 °F 57 °F 82% 30.01 in 6 mi North 4.6 mph - -  
2:00 AM 60.8 °F 57.2 °F 88% 30.01 in - North 4.6 mph - N/A   Clear
3:00 AM 55.4 °F 53.6 °F 94% 30.01 in - NNE 3.5 mph - N/A   Clear
4:00 AM 53.6 °F 51.8 °F 94% 30.01 in - North 3.5 mph - N/A   Clear
5:00 AM 54 °F 53 °F 97% 30.02 in 6 mi Calm Calm - -  
5:00 AM 53.6 °F 53.6 °F 100% 30.01 in - Calm Calm - N/A   Clear
6:00 AM 53.6 °F 51.8 °F 94% 30.04 in 3.7 mi Calm Calm - N/A   Unknown
7:00 AM 51.8 °F 50.0 °F 94% 30.04 in 3.7 mi Calm Calm - N/A   Unknown
8:00 AM 59 °F 57 °F 92% 30.07 in 4 mi Calm Calm - -   Mist
8:00 AM 59.0 °F 57.2 °F 94% 30.06 in 3.7 mi Calm Calm - N/A   Unknown
9:00 AM 66.2 °F 59.0 °F 78% 30.06 in - North 3.5 mph - N/A   Clear
10:00 AM 69.8 °F 57.2 °F 64% 30.06 in - East 2.3 mph - N/A   Clear
11:00 AM 72 °F 55 °F 44% 30.09 in 6 mi NNE 3.5 mph - -  
11:00 AM 71.6 °F 55.4 °F 57% 30.06 in - ENE 3.5 mph - N/A   Clear
12:00 PM 73.4 °F 57.2 °F 57% 30.06 in - NNW 4.6 mph - N/A   Clear
1:00 PM 77.0 °F 55.4 °F 47% 30.04 in - NE 2.3 mph - N/A   Clear
2:00 PM 75 °F 60 °F 50% 30.05 in 6 mi NNW 8.1 mph - -  
2:00 PM 75.2 °F 60.8 °F 61% 30.04 in - NNW 8.1 mph - N/A   Clear
3:00 PM 71.6 °F 59.0 °F 64% 30.04 in - North 11.5 mph - N/A   Clear
4:00 PM 71.6 °F 57.2 °F 60% 30.04 in - NNE 8.1 mph - N/A   Clear
5:00 PM 70 °F 57 °F 55% 30.05 in 6 mi ENE 8.1 mph - -  
5:00 PM 69.8 °F 57.2 °F 64% 30.04 in - ENE 8.1 mph - N/A   Clear
6:00 PM 66.2 °F 59.0 °F 78% 30.04 in - NE 9.2 mph - N/A   Clear
7:00 PM - - N/A% 30.06 in - North - - N/A   Clear
8:00 PM 64 °F 58 °F 76% 30.08 in 6 mi NE 8.1 mph - -  
8:00 PM 64.4 °F 59.0 °F 83% 30.06 in - NE 8.1 mph - N/A   Clear
9:00 PM 64.4 °F 57.2 °F 77% 30.06 in - ENE 5.8 mph - N/A   Clear
10:00 PM 62.6 °F 57.2 °F 82% 30.09 in - ENE 6.9 mph - N/A   Clear
11:00 PM 62 °F 57 °F 77% 30.10 in 6 mi East 5.8 mph - -  
11:00 PM 62.6 °F 57.2 °F 82% 30.09 in - East 5.8 mph - N/A   Clear